Bellingham, WA

6:39 AM PST on February 23, 2017 (GMT -0800)
Bellingham International

Weather History for KBLI - May, 2014

Change the Weather History Date:

Monday, May 12, 2014

  Actual Average Record
Temperature  
Mean Temperature 60 °F 53 °F  
Max Temperature 74 °F 62 °F 77 °F (1959)
Min Temperature 46 °F 45 °F 35 °F (1992)
Degree Days  
Heating Degree Days 5 12  
Month to date heating degree days 113 155  
Cooling Degree Days 0 0  
Month to date cooling degree days 0 0  
Year to date cooling degree days 0 0  
Growing Degree Days 10 (Base 50)    
Moisture  
Dew Point 45 °F    
Average Humidity 60    
Maximum Humidity 93    
Minimum Humidity 27    
Precipitation  
Precipitation 0.00 in 0.08 in 0.62 in (1988)
Month to date precipitation 2.30 0.96  
Year to date precipitation 16.69 14.56  
Sea Level Pressure  
Sea Level Pressure 30.36 in    
Wind  
Wind Speed 2 mph (NW)    
Max Wind Speed 8 mph    
Max Gust Speed 12 mph    
Visibility 10 miles    
Events      
T = Trace of Precipitation, MM = Missing Value Source: NWS Daily Summary

Daily Weather History Graph

Daily Weather History Graph

Search for Another Location

Airport or City:

Trip Planner

Search our weather history database for the weather conditions in past years. The results will help you decide how hot, cold, wet, or windy it might be!

Date:

Astronomy

May. 12, 2014 Rise Set
Actual Time 5:32 AM PDT 8:41 PM PDT
Civil Twilight 4:55 AM PDT 9:18 PM PDT
Nautical Twilight 4:06 AM PDT 10:07 PM PDT
Astronomical Twilight 3:05 AM PDT 11:09 PM PDT
Moon 6:34 PM PDT (5/12) 4:28 AM PDT (5/12)
Length of Visible Light 16h 23m
Length of Day
15h 08m
Waxing Gibbous, 95% of the Moon is Illuminated
May 12
Waxing Gibbous
May 14
Full
May 21
Last Quarter
May 28
New
Jun 5
First Quarter

Hourly Weather History & Observations

Time (PDT) Temp. Dew Point Humidity Pressure Visibility Wind Dir Wind Speed Gust Speed Precip Events Conditions
12:53 AM 50.0 °F 45.0 °F 83% 30.35 in 10.0 mi Calm Calm - N/A   Clear
1:53 AM 46.9 °F 44.1 °F 90% 30.37 in 10.0 mi Calm Calm - N/A   Clear
2:53 AM 46.9 °F 44.1 °F 90% 30.37 in 10.0 mi Calm Calm - N/A   Clear
3:53 AM 48.0 °F 45.0 °F 89% 30.37 in 10.0 mi Calm Calm - N/A   Clear
4:53 AM 48.0 °F 45.0 °F 89% 30.35 in 10.0 mi Calm Calm - N/A   Clear
5:53 AM 46.9 °F 44.1 °F 90% 30.37 in 10.0 mi Calm Calm - N/A   Clear
6:53 AM 48.2 °F 46.4 °F 93% 30.36 in 10.0 mi Calm Calm - N/A   Clear
7:53 AM 51.1 °F 46.9 °F 86% 30.40 in 10.0 mi North 3.5 mph - N/A   Clear
8:53 AM 55.9 °F 48.9 °F 77% 30.39 in 10.0 mi Calm Calm - N/A   Clear
9:53 AM 61.0 °F 48.9 °F 64% 30.40 in 10.0 mi Calm Calm - N/A   Clear
10:53 AM 64.0 °F 48.0 °F 56% 30.40 in 10.0 mi Calm Calm - N/A   Clear
11:53 AM 68.0 °F 46.0 °F 45% 30.39 in 10.0 mi Calm Calm - N/A   Clear
12:53 PM 70.0 °F 43.0 °F 38% 30.38 in 10.0 mi Calm Calm - N/A   Clear
1:53 PM 72.0 °F 36.0 °F 27% 30.37 in 10.0 mi Variable 3.5 mph - N/A   Clear
2:53 PM 73.9 °F 46.9 °F 38% 30.36 in 10.0 mi Variable 3.5 mph - N/A   Clear
3:53 PM 73.4 °F 37.4 °F 27% 30.33 in 10.0 mi Variable 5.8 mph - N/A   Clear
4:53 PM 73.9 °F 37.9 °F 27% 30.34 in 10.0 mi WNW 4.6 mph - N/A   Clear
5:53 PM 73.9 °F 39.9 °F 29% 30.33 in 10.0 mi West 4.6 mph - N/A   Clear
6:53 PM 72.0 °F 42.1 °F 34% 30.32 in 10.0 mi NNW 3.5 mph - N/A   Clear
7:53 PM 66.2 °F 50.0 °F 56% 30.29 in 10.0 mi West 4.6 mph - N/A   Clear
8:53 PM 60.1 °F 48.0 °F 64% 30.32 in 10.0 mi Calm Calm - N/A   Clear
9:53 PM 60.1 °F 48.9 °F 67% 30.33 in 10.0 mi Calm Calm - N/A   Clear
10:53 PM 57.0 °F 50.0 °F 77% 30.34 in 10.0 mi Calm Calm - N/A   Overcast
11:53 PM 57.0 °F 52.0 °F 83% 30.35 in 10.0 mi Calm Calm - N/A   Overcast